{"data":{"norad_id":53285,"intl_designator":"2022-086AV","name":"STARLINK-4173","alt_names":[],"object_type":"PAYLOAD","status":"ACTIVE","operator":null,"country":"US","launch_date":"2022-07-24","launch_site_code":"AFETR","launch_vehicle":null,"mission":null,"orbit_class":"UNKNOWN","rcs_meters":null,"size_class":null,"mass_kg":null,"dimensions":null,"purposes":["comms"],"wikipedia_slug":null,"has_3d_model":false,"image_url":null,"decayed_at":null,"tle_current":{"epoch":"2026-05-24T15:16:23.638080Z","epoch_age_seconds":120520,"freshness":"FRESH","line1":"1 53285U 22086AV  26144.63638470 -.00001609  00000+0 -83037-4 0  9997","line2":"2 53285  53.2135 203.1812 0001355  99.0396 261.0750 15.08834170212655","mean_motion":15.0883417,"eccentricity":0.0001355,"inclination_deg":53.2135,"raan_deg":203.1812,"arg_perigee_deg":99.0396,"mean_anomaly_deg":261.075,"bstar":-8.3037e-5,"rev_number":21265,"period_min":95.437923439923,"perigee_km":538.82383379184,"apogee_km":540.69858420648,"semimajor_km":6917.8982089992,"source":"CELESTRAK","updated_at":"2026-05-25T13:38:17.389782Z"}}}